Find Starlink 4474

NORAD ID: 53547 Int'l Des: 2022-101 Owner: SPXS Country: US Constellation: starlink operational
LEOCIRCULAR

リアルタイム位置

3D地球を読み込み中...

Starlink 4474について

説明を読み込み中...

次回通過

Passes for default location (London). Set your location on the main map for personalized predictions.

高度履歴

Loading altitude history...

軌道要素

1 53547U 22101W 26125.52612484 .00000769 00000-0 66387-4 0 9994
2 53547 53.2159 168.9726 0001140 83.7176 276.3946 15.08843812205552
Epoch: May 5, 2026 • Age: 9 hours

現在のステータス

高度 546.6 km
速度 7.59 km/s
衛星直下点 -22.51°S, 179.07°E
打ち上げ日 Aug 19, 2022
運用期間 3.7 years
タイプ internet

技術仕様

分類 Payload
質量 300.00 kg
乾燥質量 290.00 kg
総質量 300.00 kg
長さ 0.20 m
直径 2.80 m
スパン 9.00 m
形状 Box + pan
製造者 SPXS
バスタイプ Starlink
フェーズステータス In Orbit
所有者/国 SPXS/US

Most Searched